[[{"header":{"parameterUnit":"m.s-1","parameterCategory":1,"la1":30.2991,"la2":30.254,"lo1":-89.0895,"lo2":-89.0444,"dy":0.0017,"dx":0.0017,"nx":28,"ny":28,"refTime":"2025-08-03T03:00:00:Z","depth":0,"parameterNumber":2,"parameterNumberName":"U-component_of_WINDS"},"data":[0,0,0,0,0,0,0,0,0,0,0,0,0,0,0,0,0,0,0,0,0,0,0,0,0,0,0,0,0,0,0,0,0,0,0,0,0,0,0,0,0,0,0,0,0,0,0,0,0,0,0,0,0,0,0,0,0,0,-1.0809,-1.081,0,-1.0857,-1.0857,-1.0858,-1.082,-1.0818,-1.0817,-1.0815,-1.0863,-1.0865,-1.0868,0,0,0,0,0,0,0,0,0,0,0,0,0,-1.0684,-1.0687,-1.0809,-1.081,-1.0811,-1.0857,-1.0857,-1.0858,-1.082,-1.0818,-1.0816,-1.0814,-1.0862,-1.0865,-1.0868,0,0,0,0,0,0,0,0,0,0,0,0,0,-1.0736,-1.0688,-1.0809,-1.0797,-1.0797,-1.0857,-1.0857,-1.0858,-1.0821,-1.0818,-1.0816,-1.0814,-1.0861,-1.0865,-1.0869,-1.0943,0,0,-1.0881,-1.0883,0,0,0,0,0,0,0,0,-1.0733,-1.074,-1.0798,-1.0798,-1.0798,-1.083,-1.0831,-1.0886,-1.0821,-1.0812,-1.0815,-1.0812,-1.0854,-1.0858,-1.0872,-1.0945,-1.0947,-1.0882,-1.0884,-1.0886,-1.0887,0,0,0,0,0,0,0,-1.0729,-1.0738,-1.0828,-1.0799,-1.0799,-1.0789,-1.0794,-1.0841,-1.0845,-1.0812,-1.081,-1.0816,-1.0853,-1.0868,-1.0873,-1.0947,-1.0882,-1.0885,-1.0888,-1.089,-1.1081,-1.1084,0,0,0,0,0,0,-1.0727,-1.0735,-1.0827,-1.0829,-1.0759,-1.0793,-1.0798,-1.0822,-1.0845,-1.0846,-1.0818,-1.0814,-1.0863,-1.0868,-1.0875,-1.0962,-1.0886,-1.089,-1.0892,-1.1079,-1.1082,-1.1085,0,0,0,0,0,0,-1.0725,-1.0736,-1.0825,-1.0782,-1.0792,-1.0798,-1.0825,-1.0824,-1.084,-1.0849,-1.085,-1.0833,-1.0861,-1.0869,-1.0926,-1.0963,-1.0892,-1.0896,-1.1076,-1.108,-1.1083,-1.1137,0,0,0,0,0,0,-1.0721,-1.0735,-1.0764,-1.0783,-1.0795,-1.0876,-1.0827,-1.0827,-1.0847,-1.0842,-1.0863,-1.0865,-1.086,-1.092,-1.093,-1.0967,-1.0899,-1.1072,-1.1077,-1.1082,-1.1132,-1.1143,-1.1151,0,0,0,0,0,-1.0717,-1.0777,-1.0765,-1.0777,-1.0831,-1.0878,-1.0885,-1.0878,-1.085,-1.0879,-1.0884,-1.0864,-1.0957,-1.0926,-1.0937,-1.0976,-1.107,-1.1076,-1.1082,-1.1128,-1.1141,-1.1151,0,0,0,0,0,0,-1.0762,-1.0779,-1.0767,-1.0835,-1.0855,-1.0871,-1.0907,-1.0892,-1.092,-1.0915,-1.0905,-1.091,-1.097,-1.0979,-1.0943,-1.1048,-1.1009,-1.1017,-1.104,-1.1052,-1.1062,-1.1058,-1.0902,0,0,0,0,0,-1.078,-1.0818,-1.083,-1.0889,-1.09,-1.0902,-1.0922,-1.0915,-1.0936,-1.0944,-1.0954,-1.0975,-1.1008,-1.1031,-1.1062,-1.1133,-1.1137,-1.1165,-1.1175,-1.1183,-1.119,-1.1227,-1.124,-1.1104,-1.1104,-1.1104,0,0,-1.0818,-1.0831,-1.0856,-1.0898,-1.0913,-1.0952,-1.0909,-1.0952,-1.098,-1.095,-1.1005,-1.1013,-1.1035,-1.1099,-1.1127,-1.1108,-1.1228,-1.119,-1.1197,-1.12,-1.1235,-1.1247,-1.1259,-1.1108,-1.1107,-1.1107,0,0,-1.0905,-1.092,-1.097,-1.0986,-1.1009,-1.101,-1.1022,-1.104,-1.1045,-1.1099,-1.1077,-1.111,-1.1169,-1.1185,-1.1201,-1.1293,-1.1275,-1.1304,-1.1354,-1.139,-1.1401,-1.141,-1.1443,-1.1455,-1.1311,-1.1311,-1.1311,0,-1.0949,-1.1006,-1.0998,-1.1042,-1.1061,-1.1036,-1.1086,-1.1102,-1.1134,-1.1147,-1.1125,-1.1197,-1.1211,-1.1277,-1.13,-1.1314,-1.1326,-1.1302,-1.14,-1.141,-1.1418,-1.1449,-1.1461,-1.1315,-1.1314,-1.1314,-1.1314,0,-1.1058,-1.1098,-1.1135,-1.1167,-1.1191,-1.1238,-1.1236,-1.126,-1.1251,-1.1253,-1.1308,-1.1323,-1.1357,-1.1372,-1.1363,-1.1437,-1.1425,-1.1402,-1.1362,-1.1435,-1.1463,-1.1475,-1.1319,-1.1318,-1.1317,-1.1316,0,0,-1.1176,-1.1202,-1.1216,-1.123,-1.1253,-1.1283,-1.1329,-1.1362,-1.1383,-1.1405,-1.1442,-1.1492,-1.1471,-1.1489,-1.1481,-1.1513,-1.1585,-1.1486,-1.1486,-1.1503,-1.1666,-1.1683,-1.1697,-1.1573,-1.1575,-1.1577,-1.1664,0,-1.1264,-1.1344,-1.1337,-1.1412,-1.1448,-1.1424,-1.1463,-1.1481,-1.1485,-1.1516,-1.1519,-1.1554,-1.1524,-1.1534,-1.1565,-1.157,-1.1617,-1.1563,-1.1606,-1.1608,-1.1601,-1.1712,-1.173,-1.1812,-1.1675,-1.1677,-1.1678,0,-1.1378,-1.1405,-1.1483,-1.15,-1.1515,-1.1551,-1.158,-1.161,-1.1629,-1.1629,-1.1649,-1.1636,-1.1681,-1.164,-1.1701,-1.1664,-1.1681,-1.1686,-1.1689,-1.1693,-1.1648,-1.1718,-1.1838,-1.185,-1.1696,-1.1695,-1.1693,0,-1.1456,-1.1511,-1.1565,-1.1578,-1.1599,-1.1624,-1.1634,-1.1651,-1.1671,-1.1697,-1.1709,-1.1739,-1.1756,-1.1779,-1.1774,-1.1745,-1.1836,-1.1795,-1.1837,-1.1837,-1.1857,-1.1856,-1.1981,-1.1868,-1.1868,-1.1868,-1.1868,0,-1.1555,-1.1604,-1.16,-1.1634,-1.1687,-1.1678,-1.1731,-1.1738,-1.1753,-1.1787,-1.1768,-1.1799,-1.1791,-1.1822,-1.1818,-1.1869,-1.1876,-1.1877,-1.1875,-1.1879,-1.1879,-1.189,-1.1884,-1.1871,-1.1871,-1.187,-1.1869,0,-1.1651,-1.1651,-1.1708,-1.1723,-1.1728,-1.1766,-1.1779,-1.181,-1.1811,-1.1854,-1.1863,-1.1866,-1.1901,-1.1898,-1.1938,-1.1935,-1.1997,-1.1989,-1.1991,-1.1989,-1.2031,-1.2027,-1.2167,-1.2185,-1.2061,-1.2063,-1.2064,0,-1.1714,-1.1751,-1.177,-1.1791,-1.1803,-1.1837,-1.1857,-1.185,-1.1872,-1.1896,-1.1924,-1.1957,-1.1984,-1.2041,-1.2046,-1.2076,-1.2068,-1.2115,-1.2072,-1.2074,-1.2068,-1.2066,-1.2069,-1.2124,-1.2125,-1.2126,-1.2127,0,-1.1826,-1.1824,-1.1854,-1.1884,-1.1909,-1.1932,-1.1953,-1.1971,-1.1966,-1.1991,-1.2027,-1.2048,-1.2088,-1.2121,-1.2149,-1.2159,-1.2142,-1.214,-1.2151,-1.2155,-1.2154,-1.2154,-1.2014,-1.2137,-1.2136,-1.2135,-1.2135,-1.2134,-1.1907,-1.1938,-1.1957,-1.1991,-1.2006,-1.2026,-1.2055,-1.206,-1.209,-1.2123,-1.2116,-1.2156,-1.2174,-1.221,-1.2222,-1.2252,-1.2235,-1.2252,-1.2256,-1.226,-1.2264,-1.215,-1.2258,-1.2257,-1.2257,-1.2257,-1.2257,0,-1.2018,-1.2028,-1.2059,-1.2089,-1.2116,-1.2098,-1.212,-1.2143,-1.2179,-1.2197,-1.2223,-1.2264,-1.2295,-1.2303,-1.2333,-1.2356,-1.2349,-1.2364,-1.2362,-1.2364,-1.2278,-1.2265,-1.2369,-1.2369,-1.2369,-1.2369,-1.2369,-1.2369,-1.2078,-1.213,-1.213,-1.2188,-1.2198,-1.2238,-1.2252,-1.227,-1.2284,-1.233,-1.2357,-1.2361,-1.2374,-1.2405,-1.2433,-1.2434,-1.2446,-1.2464,-1.2462,-1.2382,-1.237,-1.236,-1.2347,-1.2467,-1.2467,-1.2545,-1.2546,-1.2547]},{"header":{"parameterUnit":"m.s-1","parameterCategory":1,"la1":30.2991,"la2":30.254,"lo1":-89.0895,"lo2":-89.0444,"dy":0.0017,"dx":0.0017,"nx":28,"ny":28,"refTime":"2025-08-03T03:00:00:Z","depth":0,"parameterNumber":3,"parameterNumberName":"V-component_of_WINDS"},"data":[0,0,0,0,0,0,0,0,0,0,0,0,0,0,0,0,0,0,0,0,0,0,0,0,0,0,0,0,0,0,0,0,0,0,0,0,0,0,0,0,0,0,0,0,0,0,0,0,0,0,0,0,0,0,0,0,0,0,-3.1826,-3.1826,0,-3.185,-3.185,-3.185,-3.1799,-3.1797,-3.1795,-3.1794,-3.1816,-3.1818,-3.182,0,0,0,0,0,0,0,0,0,0,0,0,0,-3.1735,-3.1736,-3.1826,-3.1826,-3.1827,-3.185,-3.185,-3.185,-3.1799,-3.1797,-3.1795,-3.1793,-3.1815,-3.1818,-3.182,0,0,0,0,0,0,0,0,0,0,0,0,0,-3.1768,-3.1737,-3.1826,-3.1804,-3.1802,-3.1849,-3.185,-3.185,-3.1799,-3.1797,-3.1794,-3.1792,-3.1814,-3.1817,-3.182,-3.189,0,0,-3.183,-3.1832,0,0,0,0,0,0,0,0,-3.1766,-3.1771,-3.1807,-3.1806,-3.1804,-3.1819,-3.1825,-3.1863,-3.18,-3.18,-3.1794,-3.1791,-3.1819,-3.1821,-3.1831,-3.1891,-3.1892,-3.183,-3.1832,-3.1834,-3.1835,0,0,0,0,0,0,0,-3.1764,-3.177,-3.1835,-3.1807,-3.1806,-3.1792,-3.1794,-3.1832,-3.1823,-3.18,-3.1796,-3.18,-3.1817,-3.1828,-3.1831,-3.1892,-3.183,-3.1833,-3.1835,-3.1836,-3.2009,-3.2011,0,0,0,0,0,0,-3.1765,-3.1768,-3.1835,-3.1836,-3.1778,-3.1796,-3.1798,-3.1816,-3.1822,-3.1821,-3.1802,-3.1798,-3.1824,-3.1827,-3.1832,-3.1913,-3.1834,-3.1837,-3.1839,-3.2006,-3.2009,-3.2012,0,0,0,0,0,0,-3.1763,-3.1771,-3.1834,-3.1801,-3.1808,-3.18,-3.1821,-3.1818,-3.1829,-3.1824,-3.1822,-3.1815,-3.1822,-3.1827,-3.1876,-3.1913,-3.1838,-3.1841,-3.2003,-3.2007,-3.2011,-3.2076,0,0,0,0,0,0,-3.176,-3.1771,-3.1798,-3.1802,-3.181,-3.1878,-3.1823,-3.182,-3.1835,-3.1829,-3.1836,-3.1834,-3.182,-3.1871,-3.1879,-3.1916,-3.1844,-3.1999,-3.2005,-3.2009,-3.207,-3.2081,-3.2091,0,0,0,0,0,-3.1757,-3.1815,-3.1799,-3.1807,-3.1844,-3.188,-3.1885,-3.1868,-3.1838,-3.1864,-3.1861,-3.1834,-3.1908,-3.1877,-3.1885,-3.1923,-3.1997,-3.2003,-3.2009,-3.2065,-3.2079,-3.2091,0,0,0,0,0,0,-3.1814,-3.1815,-3.1798,-3.1859,-3.187,-3.1872,-3.1905,-3.1883,-3.1903,-3.1897,-3.1875,-3.1877,-3.1929,-3.1931,-3.1896,-3.199,-3.1947,-3.1955,-3.1987,-3.2,-3.201,-3.2009,-3.1846,0,0,0,0,0,-3.1834,-3.1864,-3.1863,-3.1917,-3.1923,-3.1913,-3.1929,-3.1915,-3.1925,-3.193,-3.193,-3.1941,-3.1966,-3.1983,-3.2006,-3.207,-3.207,-3.2101,-3.2111,-3.212,-3.2127,-3.216,-3.2173,-3.2032,-3.2032,-3.2032,0,0,-3.1875,-3.1879,-3.1899,-3.1928,-3.1935,-3.1967,-3.1918,-3.1953,-3.1975,-3.1935,-3.1981,-3.1981,-3.1991,-3.2048,-3.2073,-3.2051,-3.2166,-3.2127,-3.2134,-3.2136,-3.2167,-3.2181,-3.2193,-3.2036,-3.2035,-3.2034,0,0,-3.1965,-3.1971,-3.2017,-3.2025,-3.2036,-3.2029,-3.204,-3.2045,-3.2044,-3.209,-3.206,-3.2086,-3.213,-3.2139,-3.2149,-3.2242,-3.2217,-3.225,-3.2304,-3.2337,-3.2348,-3.2358,-3.239,-3.2403,-3.2257,-3.2257,-3.2257,0,-3.2014,-3.2061,-3.2042,-3.208,-3.2093,-3.2058,-3.2103,-3.2112,-3.213,-3.214,-3.2115,-3.217,-3.2174,-3.2232,-3.2254,-3.2264,-3.2275,-3.2249,-3.2348,-3.2358,-3.2366,-3.2397,-3.241,-3.2261,-3.226,-3.226,-3.226,0,-3.212,-3.2153,-3.2188,-3.2207,-3.2224,-3.2265,-3.2252,-3.2271,-3.2256,-3.2251,-3.2298,-3.2302,-3.2325,-3.2338,-3.2323,-3.2393,-3.2379,-3.2352,-3.2308,-3.2384,-3.2413,-3.2424,-3.2266,-3.2265,-3.2264,-3.2263,0,0,-3.2247,-3.2255,-3.2269,-3.2277,-3.2287,-3.2311,-3.235,-3.2373,-3.239,-3.2403,-3.2435,-3.2473,-3.2448,-3.2459,-3.2445,-3.2474,-3.2546,-3.2443,-3.2443,-3.2462,-3.2623,-3.2644,-3.2658,-3.253,-3.2533,-3.2534,-3.2622,0,-3.2336,-3.2404,-3.2388,-3.2455,-3.2485,-3.2452,-3.2485,-3.2495,-3.2491,-3.2515,-3.251,-3.2537,-3.2502,-3.2509,-3.2536,-3.2532,-3.2579,-3.2525,-3.2559,-3.256,-3.2557,-3.2673,-3.2695,-3.2778,-3.2634,-3.2635,-3.2637,0,-3.2449,-3.2468,-3.2538,-3.2542,-3.2554,-3.2585,-3.2604,-3.2628,-3.2637,-3.2632,-3.2645,-3.2625,-3.2663,-3.2619,-3.267,-3.2634,-3.2647,-3.2647,-3.265,-3.2652,-3.2603,-3.2678,-3.2804,-3.2816,-3.2654,-3.2653,-3.2652,0,-3.2535,-3.2577,-3.2624,-3.2632,-3.2638,-3.2661,-3.2664,-3.2671,-3.2686,-3.2703,-3.2712,-3.2733,-3.2744,-3.276,-3.2746,-3.2716,-3.2799,-3.2754,-3.2796,-3.2796,-3.2815,-3.2814,-3.2944,-3.2824,-3.2823,-3.2823,-3.2823,0,-3.2636,-3.268,-3.2662,-3.2691,-3.2739,-3.272,-3.2768,-3.2767,-3.2774,-3.2802,-3.2774,-3.28,-3.278,-3.2804,-3.2793,-3.2837,-3.2842,-3.2839,-3.2835,-3.2841,-3.2842,-3.2849,-3.2843,-3.2826,-3.2826,-3.2825,-3.2825,0,-3.2739,-3.2729,-3.2778,-3.2781,-3.2782,-3.2817,-3.2819,-3.2845,-3.2839,-3.2875,-3.2882,-3.2872,-3.29,-3.2887,-3.2915,-3.2908,-3.2964,-3.2953,-3.2961,-3.2958,-3.3,-3.2996,-3.314,-3.3158,-3.3026,-3.3027,-3.3028,0,-3.2804,-3.2837,-3.2843,-3.286,-3.2866,-3.2893,-3.2908,-3.289,-3.2907,-3.292,-3.2945,-3.2969,-3.2988,-3.3033,-3.3029,-3.305,-3.3039,-3.3088,-3.3042,-3.3047,-3.3039,-3.3037,-3.304,-3.3097,-3.3098,-3.31,-3.3101,0,-3.2921,-3.2914,-3.2937,-3.2958,-3.2977,-3.2993,-3.3006,-3.3021,-3.3004,-3.3023,-3.3051,-3.3066,-3.3095,-3.312,-3.3138,-3.3141,-3.3118,-3.3115,-3.3126,-3.3132,-3.3136,-3.3134,-3.2986,-3.3112,-3.3111,-3.311,-3.3109,-3.3109,-3.3006,-3.3034,-3.3043,-3.3069,-3.3077,-3.309,-3.3115,-3.3112,-3.3135,-3.3158,-3.3146,-3.3178,-3.3185,-3.3208,-3.3214,-3.3238,-3.3219,-3.3235,-3.3238,-3.3243,-3.3248,-3.3132,-3.3242,-3.3241,-3.3241,-3.3241,-3.324,0,-3.3121,-3.3125,-3.3149,-3.3169,-3.3189,-3.3166,-3.3179,-3.3198,-3.3227,-3.3236,-3.3256,-3.3287,-3.3311,-3.3308,-3.333,-3.335,-3.334,-3.3356,-3.3354,-3.3355,-3.3264,-3.3253,-3.3364,-3.3364,-3.3364,-3.3364,-3.3364,-3.3364,-3.3183,-3.3229,-3.3223,-3.3272,-3.3275,-3.3307,-3.3316,-3.3328,-3.3335,-3.3372,-3.3392,-3.339,-3.3394,-3.3416,-3.3436,-3.3435,-3.3444,-3.3464,-3.3459,-3.3374,-3.3362,-3.335,-3.3339,-3.3466,-3.3466,-3.3547,-3.3548,-3.3549]}]]